This is the latest recevied weather packets stored in our database for station/object 9W2CHF-4. If no packets are shown the sender has not sent any weather packets the latest 10 day(s).
| Time | Temp. | Humidity | Pressure | Rain* | Wind** | Luminosity | Snow |
|---|---|---|---|---|---|---|---|
| 1777361899 | 33.89° C | 54% | 1007.5 hPa | - | - | - | - |
| 1777360999 | 33.89° C | 56% | 1007.5 hPa | - | - | - | - |
| 1777360098 | 33.33° C | 56% | 1007.6 hPa | - | - | - | - |
| 1777359197 | 33.33° C | 56% | 1008.1 hPa | - | - | - | - |
| 1777358297 | 33.33° C | 54% | 1008.2 hPa | - | - | - | - |
| 1777357397 | 33.89° C | 55% | 1008.2 hPa | - | - | - | - |
| 1777356497 | 33.89° C | 58% | 1008.5 hPa | - | - | - | - |
| 1777355597 | 33.89° C | 57% | 1009 hPa | - | - | - | - |
| 1777354697 | 33.33° C | 57% | 1009.2 hPa | - | - | - | - |
| 1777353797 | 33.33° C | 59% | 1009.4 hPa | - | - | - | - |
| 1777352897 | 33.89° C | 59% | 1009.6 hPa | - | - | - | - |
| 1777351997 | 33.33° C | 58% | 1009.8 hPa | - | - | - | - |
| 1777351097 | 33.33° C | 62% | 1010.1 hPa | - | - | - | - |
| 1777350197 | 33.33° C | 60% | 1010.2 hPa | - | - | - | - |
| 1777349297 | 33.33° C | 66% | 1010.3 hPa | - | - | - | - |
| 1777348397 | 33.89° C | 66% | 1010.5 hPa | - | - | - | - |
| 1777347496 | 33.89° C | 79% | 1010.6 hPa | - | - | - | - |
| 1777346596 | 33.33° C | 84% | 1010.6 hPa | - | - | - | - |
| 1777345696 | 33.33° C | 84% | 1010.7 hPa | - | - | - | - |
| 1777344796 | 33.33° C | 81% | 1010.8 hPa | - | - | - | - |
| 1777343896 | 33.33° C | 80% | 1010.9 hPa | - | - | - | - |
| 1777342996 | 33.33° C | 79% | 1011 hPa | - | - | - | - |
| 1777342096 | 33.33° C | 79% | 1011 hPa | - | - | - | - |
| 1777341196 | 33.33° C | 80% | 1011 hPa | - | - | - | - |
| 1777340296 | 33.33° C | 82% | 1010.9 hPa | - | - | - | - |
* Rain since midnight (hover to see other rain measurements)
** Current wind speed in m/s (hover to see current wind gust speed)